Theta_e
288 286 286 285 284 285 285 285 285 285 285 285 285 284 284 283 282 281 281 282 281 280 280 280 280 279 279 278 278 278 278 279
288 287 286 285 284 284 284 284 284 285 284 284 284 284 284 283 282 281 281 281 280 280 279 279 278 278 277 277 277 277 277 277
288 287 285 285 284 284 284 284 284 284 284 284 284 283 282 282 282 281 280 280 279 279 278 278 278 277 277 276 276 276 276 276
288 286 286 285 284 284 284 284 284 284 283 282 282 282 281 281 281 280 279 278 278 278 277 277 277 276 276 276 276 275 275 276
288 287 286 285 284 284 284 284 284 283 283 281 281 281 281 281 280 279 279 278 277 277 276 276 276 275 276 276 275 275 276 276
288 287 286 285 285 284 284 284 284 283 282 282 281 281 281 280 279 279 278 277 277 276 275 275 275 275 275 276 275 275 275 275
289 288 286 285 285 284 284 283 283 283 282 282 282 281 281 279 278 278 277 276 276 275 275 274 275 278 277 277 276 276 275 274
290 289 289 287 286 284 284 283 282 281 281 281 281 282 280 279 277 276 275 275 274 274 274 273 274 278 278 278 276 275 274 275
291 291 289 288 287 286 283 282 282 282 282 281 282 280 278 277 276 275 275 274 273 273 273 273 273 278 278 278 275 274 274 274
292 291 290 288 288 285 283 282 282 282 282 282 281 279 278 277 275 275 274 272 272 272 270 270 271 277 278 277 274 274 274 275
290 289 288 286 286 285 283 282 281 282 282 282 281 280 278 277 275 274 271 273 273 272 270 270 268 276 277 277 273 268 272 273
287 286 285 284 283 281 281 281 282 281 280 279 279 279 278 276 272 273 271 272 270 270 269 269 269 269 276 277 274 271 270 271
283 282 282 282 282 280 280 281 279 278 278 278 278 277 276 274 269 270 270 267 266 266 267 269 270 272 274 276 278 276 271 269
280 279 280 279 280 279 278 278 276 276 276 273 272 273 273 271 269 267 267 268 267 267 267 267 270 270 275 276 277 278 275 274
278 277 276 274 277 276 276 276 275 273 272 271 271 269 268 270 269 269 267 267 267 268 268 266 267 268 269 270 270 274 274 274
278 276 275 274 273 272 273 273 272 271 270 268 268 268 266 267 268 269 267 269 264 265 264 264 265 268 271 270 266 266 270 271
274 273 272 272 270 268 268 270 270 269 269 268 267 266 266 266 264 274 274 275 277 277 270 264 273 275 276 277 278 278 278 272
272 271 271 269 266 264 264 266 265 267 268 267 267 266 265 263 264 262 268 276 277 277 277 277 278 278 278 278 278 279 278 262
269 266 266 263 260 260 260 263 264 263 265 265 262 263 262 262 263 262 261 262 263 269 272 273 274 275 275 276 276 272 271 256
264 263 262 260 258 257 258 261 260 263 261 262 262 261 261 262 262 262 262 259 256 257 264 266 270 271 272 273 270 269 268 262
Wind_Speed
14 12 9 8 7 8 7 9 8 8 7 7 7 8 7 7 8 7 6 6 6 6 6 6 6 6 5 4 3 4 3 2
15 11 11 10 9 8 8 9 8 7 7 8 7 8 7 7 7 7 7 7 7 6 6 6 4 4 3 3 3 3 2 3
14 14 13 13 11 10 8 9 7 7 7 7 7 7 8 7 7 8 7 7 7 6 5 5 4 3 3 2 1 1 2 3
13 15 15 14 13 11 10 10 8 8 8 7 7 8 8 8 8 7 7 7 6 6 6 5 4 3 3 2 1 1 3 3
15 15 14 14 14 13 11 10 10 9 8 8 9 8 8 8 8 7 7 7 6 5 5 4 4 3 4 3 2 3 4 4
17 16 15 14 13 13 12 12 12 12 10 10 8 7 8 8 7 7 7 6 6 6 4 4 4 3 4 2 3 4 5 5
17 16 16 17 16 14 14 13 13 12 11 8 9 8 8 8 8 7 7 6 6 5 5 5 3 8 8 5 3 4 6 5
18 16 15 15 15 16 14 12 13 10 8 9 10 11 10 10 9 8 7 6 6 6 6 6 5 10 9 9 4 5 5 6
12 11 12 12 11 11 9 12 12 11 11 9 12 11 9 10 9 7 6 8 6 6 6 6 6 12 10 10 5 6 8 7
10 9 10 12 11 12 10 11 12 12 12 12 11 11 11 11 10 8 8 6 6 4 7 7 5 12 12 9 4 7 9 8
9 7 10 8 11 11 11 11 12 12 13 11 11 12 13 11 11 7 5 7 7 6 7 7 7 14 14 11 4 5 7 7
10 10 9 8 9 8 8 12 11 8 8 10 11 12 11 9 6 8 6 6 7 7 5 7 8 9 15 15 7 7 6 6
8 7 6 7 9 8 11 8 6 8 9 9 10 8 8 10 5 7 8 7 6 6 5 6 7 11 14 18 19 14 8 6
8 8 6 6 7 8 5 7 7 7 7 6 6 6 8 9 8 6 6 7 7 7 7 6 6 6 17 17 17 18 12 6
8 7 6 4 6 4 6 7 7 6 6 6 7 6 5 4 6 6 7 7 6 6 7 3 3 5 6 5 6 13 11 12
7 5 4 4 3 3 5 6 5 5 5 4 4 5 4 4 6 6 3 7 4 4 4 4 4 5 10 9 5 5 10 10
4 5 3 5 5 4 3 5 6 5 4 4 4 4 4 4 2 10 11 12 14 13 7 2 8 12 15 17 18 21 20 5
4 5 6 7 7 5 4 5 5 5 5 4 4 5 4 3 3 2 3 10 13 14 15 16 16 18 19 19 21 23 20 3
6 6 6 7 6 3 3 6 6 5 6 5 3 4 3 3 3 3 3 2 1 4 8 11 14 17 19 19 19 10 7 3
7 6 7 7 4 3 3 6 6 5 4 4 4 4 4 3 3 2 1 2 2 2 6 7 15 17 19 20 9 8 7 5
Wind_Direction
174 168 155 151 149 149 149 145 144 136 126 126 128 123 125 120 126 124 120 117 112 98 86 78 74 65 71 69 58 58 16 44
176 165 156 155 158 154 154 149 147 143 144 138 137 136 129 123 128 132 128 126 121 114 109 107 103 82 71 83 83 39 6 344
174 163 163 165 161 163 158 152 158 150 142 145 139 135 130 134 138 142 138 124 132 131 132 132 126 120 131 107 38 14 331 303
172 177 175 172 167 167 163 159 161 150 150 150 151 147 150 149 149 149 145 143 142 149 152 156 159 168 182 155 258 315 278 284
180 182 180 176 172 172 169 162 162 157 160 163 168 164 158 151 153 154 151 153 161 159 164 167 179 192 209 205 247 268 268 282
186 184 180 178 175 173 171 166 166 168 174 180 164 156 153 153 154 154 156 162 161 161 166 183 203 210 197 225 254 268 273 276
188 183 182 181 179 174 174 171 169 176 183 165 162 160 161 155 160 151 158 159 157 171 183 205 219 225 212 223 242 268 273 272
191 187 181 181 177 181 174 160 173 172 169 171 164 172 169 159 153 159 174 165 176 186 190 207 218 228 222 238 243 261 263 268
182 176 176 171 171 158 160 165 171 176 175 169 174 175 162 159 169 167 168 179 175 189 196 207 219 230 227 235 235 252 257 251
160 157 157 159 163 159 162 160 170 182 180 181 177 171 167 179 178 183 173 173 180 180 193 203 213 230 230 232 234 254 259 257
136 137 152 156 150 155 163 164 185 182 187 180 179 177 183 185 182 178 173 188 184 194 194 204 216 231 235 232 221 244 255 254
134 149 153 139 137 146 148 188 193 170 163 172 179 183 185 171 159 172 168 166 183 196 198 207 206 225 241 241 227 234 246 247
121 124 129 129 137 147 186 192 155 159 168 175 177 176 164 165 152 160 167 178 189 195 220 224 220 221 241 243 240 238 244 241
129 128 142 151 153 170 208 154 149 154 169 157 142 152 157 158 161 153 170 188 202 208 225 227 213 212 237 234 244 249 256 248
129 141 161 168 176 170 154 146 146 151 156 151 156 149 144 153 165 179 190 199 203 206 224 207 198 197 202 223 243 261 261 265
150 153 168 159 174 159 139 138 145 136 145 149 140 158 159 187 186 197 207 191 184 211 189 183 219 216 217 218 216 222 238 247
144 129 122 110 97 76 99 131 137 139 149 159 154 157 158 173 248 236 221 231 243 240 198 219 246 256 259 259 260 254 251 238
143 123 115 103 83 49 59 106 135 155 159 146 143 153 164 154 157 172 291 248 249 251 254 263 257 251 260 267 268 266 257 186
108 98 103 97 79 17 91 106 107 97 105 125 132 133 131 140 144 130 138 185 291 306 284 282 282 282 282 281 281 277 253 151
94 92 100 98 69 11 82 102 100 101 81 90 91 81 83 72 78 97 132 210 230 310 292 295 286 291 291 291 284 270 252 205